CQ0XPG-11 Weather Reports


time (UTC)temp
C
wind
direction
speed
KPH
gust
KPH
rain 1hr
cm
rain 24hr
cm
rain mn
cm
humidity
%
barometer
mb
20260507042411 4 225 0.0 1.6 0.00 0.00 0.00 100 999.5
20260507041909 4 225 0.0 3.2 0.00 0.00 0.00 100 999.5
20260507035330 5 225 1.6 1.6 0.00 0.00 0.00 100 999.8
20260507034859 5 225 1.6 3.2 0.00 0.00 0.00 100 999.9
20260507034320 5 225 1.6 1.6 0.00 0.00 0.00 100 999.9
20260507033323 5 225 1.6 3.2 0.00 0.00 0.00 100 999.8
20260507032853 5 225 1.6 1.6 0.00 0.00 0.00 100 999.9
20260507032312 5 225 0.0 3.2 0.00 0.00 0.00 100 999.9
20260507031853 5 225 0.0 1.6 0.00 0.00 0.00 100 999.8
20260507031259 5 225 0.0 3.2 0.00 0.00 0.00 100 999.9
20260507030813 5 225 0.0 3.2 0.00 0.00 0.00 100 1000.0
20260507030316 5 225 1.6 3.2 0.00 0.00 0.00 100 1000.1
20260507025800 5 225 0.0 3.2 0.00 0.00 0.00 100 1000.1
20260507025255 5 225 0.0 3.2 0.00 0.00 0.00 100 1000.1
20260507024827 5 225 1.6 4.8 0.00 0.00 0.00 100 1000.2
20260507023749 5 225 0.0 1.6 0.00 0.00 0.00 100 1000.3
20260507023249 5 225 0.0 3.2 0.00 0.00 0.00 100 1000.3
20260507022743 6 225 1.6 1.6 0.00 0.00 0.00 100 1000.3
20260507022243 5 225 0.0 1.6 0.00 0.00 0.00 100 1000.3
20260507021812 5 225 0.0 1.6 0.00 0.00 0.00 100 1000.4
20260507021222 6 225 0.0 3.2 0.00 0.00 0.00 100 1000.3
20260507020748 6 225 1.6 3.2 0.00 0.00 0.00 100 1000.4
20260507020237 6 225 0.0 1.6 0.00 0.00 0.00 100 1000.4
20260507015721 6 225 1.6 3.2 0.00 0.00 0.00 100 1000.6
20260507015217 6 225 0.0 3.2 0.00 0.00 0.00 100 1000.6
20260507014734 6 225 0.0 1.6 0.00 0.00 0.00 100 1000.6
20260507014214 6 225 1.6 4.8 0.00 0.00 0.00 100 1000.7
20260507013710 6 225 0.0 3.2 0.00 0.00 0.00 100 1000.8
20260507013216 6 225 0.0 3.2 0.00 0.00 0.00 100 1000.8
20260507012155 6 225 0.0 1.6 0.00 0.00 0.00 100 1001.0
20260507011738 7 225 0.0 3.2 0.00 0.00 0.00 100 1001.1
20260507011143 7 225 1.6 3.2 0.00 0.00 0.00 100 1001.2
20260507010703 7 225 0.0 3.2 0.00 0.00 0.00 100 1001.2
20260507010201 7 225 1.6 1.6 0.00 0.00 0.00 100 1001.2
20260507005655 7 225 1.6 1.6 0.00 0.00 0.00 100 1001.2
20260507000137 8 225 1.6 3.2 0.00 0.00 0.00 100 1001.7
20260506235611 8 225 0.0 3.2 0.00 0.00 0.00 100 1001.7
20260506234616 9 225 1.6 1.6 0.00 0.00 0.00 100 1001.5
20260506234103 9 225 0.0 1.6 0.00 0.00 0.00 100 1001.5
20260506233551 9 225 0.0 3.2 0.00 0.00 0.00 100 1001.5
20260506233056 9 225 0.0 1.6 0.00 0.00 0.00 100 1001.6
20260506232552 9 225 1.6 4.8 0.00 0.00 0.00 100 1001.5
20260506232047 10 225 0.0 1.6 0.00 0.00 0.00 100 1001.5
20260506231623 10 225 0.0 6.4 0.00 0.00 0.00 100 1001.6
20260506230611 10 225 0.0 1.6 0.00 0.00 0.00 100 1001.6
20260506230050 10 225 0.0 4.8 0.00 0.00 0.00 100 1001.6
20260506225532 10 225 0.0 3.2 0.00 0.00 0.00 100 1001.6
20260506225026 10 225 3.2 3.2 0.00 0.00 0.00 100 1001.7
20260506224558 10 225 0.0 1.6 0.00 0.00 0.00 100 1001.8
20260506224017 10 225 0.0 6.4 0.00 0.00 0.00 100 1001.7
20260506223527 10 225 0.0 6.4 0.00 0.00 0.00 100 1001.7
20260506223020 10 225 0.0 4.8 0.00 0.00 0.00 100 1001.8
20260506222521 10 225 1.6 8.0 0.00 0.00 0.00 100 1001.9
20260506222026 10 225 1.6 1.6 0.00 0.00 0.00 100 1001.9
20260506221519 10 225 1.6 4.8 0.00 0.00 0.00 100 1001.8
20260506221025 10 225 0.0 1.6 0.00 0.00 0.00 100 1001.9
20260506220512 10 225 0.0 1.6 0.00 0.00 0.00 100 1002.0
20260506220038 10 225 0.0 4.8 0.00 0.00 0.00 100 1001.9
20260506215505 10 225 3.2 4.8 0.00 0.00 0.00 100 1002.0
20260506213952 11 225 1.6 6.4 0.00 0.00 0.00 100 1002.0
20260506213447 11 225 4.8 6.4 0.00 0.00 0.00 100 1002.0
20260506212958 11 225 3.2 4.8 0.00 0.00 0.00 100 1002.0
20260506212443 11 225 1.6 3.2 0.00 0.00 0.00 100 1002.0
20260506211937 11 225 0.0 6.4 0.00 0.00 0.00 100 1001.9
20260506211433 11 225 1.6 4.8 0.00 0.00 0.00 100 1002.0
20260506210929 11 225 4.8 9.7 0.00 0.00 0.00 100 1002.0
20260506210454 11 225 9.7 9.7 0.00 0.00 0.00 100 1001.9
20260506205943 11 225 1.6 6.4 0.00 0.00 0.00 100 1002.0
20260506205425 11 225 3.2 4.8 0.00 0.00 0.00 100 1001.9
20260506204918 11 225 3.2 6.4 0.00 0.00 0.00 100 1001.8
20260506204435 11 225 1.6 9.7 0.00 0.00 0.00 100 1001.7
20260506203400 12 225 3.2 8.0 0.00 0.00 0.00 100 1001.7
20260506202847 12 225 6.4 8.0 0.00 0.00 0.00 100 1001.7
20260506202356 12 225 6.4 6.4 0.00 0.00 0.00 100 1001.7
20260506201344 12 225 1.6 9.7 0.00 0.00 0.00 100 1001.5
20260506200846 12 225 3.2 8.0 0.00 0.00 0.00 100 1001.6
20260506200359 12 225 3.2 8.0 0.00 0.00 0.00 100 1001.5
20260506195836 12 225 4.8 9.7 0.00 0.00 0.00 100 1001.6
20260506194839 13 225 3.2 6.4 0.00 0.00 0.00 99 1001.4
20260506194334 13 225 3.2 6.4 0.00 0.00 0.00 96 1001.3
20260506193825 13 225 8.0 12.9 0.00 0.00 0.00 94 1001.4
20260506192811 13 225 4.8 9.7 0.00 0.00 0.00 89 1001.3
20260506191758 14 225 6.4 14.5 0.00 0.00 0.00 81 1001.2
20260506191311 14 225 4.8 9.7 0.00 0.00 0.00 76 1001.2
20260506190259 15 225 6.4 16.1 0.00 0.00 0.00 70 1001.2
20260506185313 15 225 3.2 12.9 0.00 0.00 0.00 66 1001.0
20260506184746 15 225 6.4 14.5 0.00 0.00 0.00 63 1000.9
20260506184302 16 225 11.3 12.9 0.00 0.00 0.00 62 1000.9
20260506183248 16 225 8.0 9.7 0.00 0.00 0.00 58 1000.9
20260506182729 16 225 4.8 17.7 0.00 0.00 0.00 56 1000.9
20260506182245 16 225 9.7 11.3 0.00 0.00 0.00 58 1001.0
20260506181726 16 225 9.7 16.1 0.00 0.00 0.00 56 1000.8
20260506181233 16 225 16.1 16.1 0.00 0.00 0.00 54 1000.9
20260506180728 16 225 4.8 17.7 0.00 0.00 0.00 55 1000.8
20260506180226 16 225 6.4 17.7 0.00 0.00 0.00 54 1000.9
20260506175710 17 225 6.4 16.1 0.00 0.00 0.00 54 1000.8
20260506175220 17 337 9.7 14.5 0.00 0.00 0.00 53 1000.9
20260506174709 17 225 9.7 14.5 0.00 0.00 0.00 53 1001.0
20260506174213 17 225 9.7 12.9 0.00 0.00 0.00 54 1001.0
20260506173727 17 225 8.0 16.1 0.00 0.00 0.00 52 1001.0
20260506173207 17 225 6.4 14.5 0.00 0.00 0.00 51 1001.1
20260506172201 17 225 9.7 16.1 0.00 0.00 0.00 51 1001.0
20260506171653 17 337 11.3 16.1 0.00 0.00 0.00 50 1001.1
20260506171154 17 337 11.3 16.1 0.00 0.00 0.00 48 1001.0
20260506165635 18 225 9.7 19.3 0.00 0.00 0.00 48 1001.0
20260506165151 18 225 11.3 12.9 0.00 0.00 0.00 49 1001.0
20260506164629 18 225 9.7 16.1 0.00 0.00 0.00 49 1001.0
20260506164145 18 225 9.7 16.1 0.00 0.00 0.00 48 1001.0
20260506163633 18 225 14.5 14.5 0.00 0.00 0.00 51 1001.0
20260506163129 18 225 4.8 12.9 0.00 0.00 0.00 48 1000.9
20260506162614 18 225 14.5 17.7 0.00 0.00 0.00 47 1001.0
20260506162146 18 225 17.7 17.7 0.00 0.00 0.00 47 1001.0
20260506161609 18 225 8.0 14.5 0.00 0.00 0.00 46 1001.0
20260506161116 19 225 4.8 16.1 0.00 0.00 0.00 47 1001.0
20260506160616 19 225 11.3 14.5 0.00 0.00 0.00 47 1001.0
20260506160104 18 225 6.4 12.9 0.00 0.00 0.00 49 1001.0
20260506155557 19 225 4.8 16.1 0.00 0.00 0.00 49 1001.0
20260506155100 19 225 14.5 16.1 0.00 0.00 0.00 49 1001.1
20260506154551 19 225 9.7 16.1 0.00 0.00 0.00 49 1001.1
20260506154054 19 225 14.5 17.7 0.00 0.00 0.00 48 1001.1
20260506153609 19 225 8.0 17.7 0.00 0.00 0.00 47 1001.0
20260506153050 19 225 6.4 11.3 0.00 0.00 0.00 45 1001.0
20260506152538 19 225 6.4 16.1 0.00 0.00 0.00 45 1001.0
20260506152049 19 225 8.0 14.5 0.00 0.00 0.00 44 1001.1
20260506151531 19 225 1.6 19.3 0.00 0.00 0.00 45 1001.2
20260506151046 19 225 12.9 24.1 0.00 0.00 0.00 44 1001.2
20260506150538 19 225 9.7 17.7 0.00 0.00 0.00 47 1001.4
20260506150031 19 225 12.9 27.4 0.00 0.00 0.00 44 1001.5
20260506145514 20 225 9.7 12.9 0.00 0.00 0.00 42 1001.5
20260506145046 20 225 8.0 11.3 0.00 0.00 0.00 41 1001.5
20260506144505 20 225 6.4 12.9 0.00 0.00 0.00 41 1001.7
20260506144032 20 225 6.4 11.3 0.00 0.00 0.00 42 1001.7
20260506143527 19 225 3.2 14.5 0.00 0.00 0.00 43 1001.8
20260506143027 19 225 6.4 16.1 0.00 0.00 0.00 44 1001.9
20260506142452 19 225 8.0 11.3 0.00 0.00 0.00 43 1001.9
20260506142021 19 225 8.0 9.7 0.00 0.00 0.00 39 1001.9
20260506141452 19 225 9.7 14.5 0.00 0.00 0.00 39 1002.1
20260506140509 19 225 6.4 8.0 0.00 0.00 0.00 42 1002.2
20260506135959 18 225 3.2 11.3 0.00 0.00 0.00 41 1002.3
20260506135440 18 225 6.4 9.7 0.00 0.00 0.00 45 1002.3
20260506135003 18 225 3.2 9.7 0.00 0.00 0.00 43 1002.3
20260506134427 19 225 8.0 14.5 0.00 0.00 0.00 43 1002.4
20260506133448 19 225 6.4 14.5 0.00 0.00 0.00 42 1002.6
20260506132427 18 225 9.7 9.7 0.00 0.00 0.00 45 1002.6
20260506131409 18 225 4.8 11.3 0.00 0.00 0.00 45 1002.8
20260506130914 17 225 1.6 11.3 0.00 0.00 0.00 47 1002.9
20260506130415 18 225 6.4 9.7 0.00 0.00 0.00 46 1002.9
20260506125927 18 225 8.0 16.1 0.00 0.00 0.00 47 1003.1
20260506125356 18 225 1.6 11.3 0.00 0.00 0.00 45 1002.9
20260506124925 18 225 1.6 9.7 0.00 0.00 0.00 43 1003.1
20260506124355 19 225 9.7 11.3 0.00 0.00 0.00 45 1003.2
20260506123907 19 225 3.2 12.9 0.00 0.00 0.00 45 1003.2
20260506123403 18 225 0.0 9.7 0.00 0.00 0.00 46 1003.1
20260506122857 18 225 1.6 11.3 0.00 0.00 0.00 46 1003.2
20260506122342 18 225 3.2 11.3 0.00 0.00 0.00 48 1003.4
20260506121902 18 225 8.0 11.3 0.00 0.00 0.00 48 1003.5
20260506121330 17 225 9.7 11.3 0.00 0.00 0.00 50 1003.6
20260506120904 17 225 3.2 8.0 0.00 0.00 0.00 52 1003.6
20260506120324 17 225 6.4 12.9 0.00 0.00 0.00 51 1003.6
20260506115832 17 225 1.6 11.3 0.00 0.00 0.00 53 1003.6
20260506115321 17 225 4.8 11.3 0.00 0.00 0.00 54 1003.6
20260506114840 16 225 1.6 4.8 0.00 0.00 0.00 58 1003.7
20260506114315 16 225 1.6 9.7 0.00 0.00 0.00 57 1003.8
20260506113827 17 225 9.7 19.3 0.00 0.00 0.00 55 1003.8
20260506113310 17 225 12.9 12.9 0.00 0.00 0.00 54 1003.9
20260506112820 17 225 6.4 8.0 0.00 0.00 0.00 54 1004.0
20260506112306 17 225 1.6 9.7 0.00 0.00 0.00 54 1004.0
20260506111819 17 337 1.6 12.9 0.00 0.00 0.00 55 1004.1
20260506111251 17 337 4.8 9.7 0.00 0.00 0.00 59 1004.1
20260506110801 17 337 11.3 11.3 0.00 0.00 0.00 60 1004.1
20260506110308 17 337 6.4 14.5 0.00 0.00 0.00 60 1004.1
20260506105759 17 337 8.0 11.3 0.00 0.00 0.00 61 1004.2
20260506105245 16 337 1.6 11.3 0.00 0.00 0.00 65 1004.2
20260506104232 16 337 9.7 11.3 0.00 0.00 0.00 64 1004.3
20260506103746 16 337 4.8 12.9 0.00 0.00 0.00 66 1004.2
20260506103225 16 337 8.0 8.0 0.00 0.00 0.00 69 1004.3
20260506102219 16 337 6.4 12.9 0.00 0.00 0.00 71 1004.3
20260506101754 16 337 6.4 12.9 0.00 0.00 0.00 70 1004.4
20260506101233 16 337 9.7 9.7 0.00 0.00 0.00 77 1004.5
20260506100213 15 337 3.2 6.4 0.00 0.00 0.00 81 1004.5
20260506095736 15 337 6.4 8.0 0.00 0.00 0.00 80 1004.4
20260506095206 15 337 4.8 19.3 0.00 0.00 0.00 84 1004.5
20260506094714 15 337 4.8 11.3 0.00 0.00 0.00 84 1004.5
20260506094219 15 337 4.8 11.3 0.00 0.00 0.00 86 1004.5
20260506093711 15 337 3.2 8.0 0.00 0.00 0.00 98 1004.5
20260506093150 15 337 3.2 9.7 0.00 0.00 0.00 100 1004.6
20260506092726 14 337 4.8 4.8 0.00 0.00 0.00 100 1004.7
20260506090129 13 337 8.0 8.0 0.00 0.00 0.00 100 1004.7
20260506085641 13 337 4.8 8.0 0.00 0.00 0.00 100 1004.7
20260506085130 13 337 9.7 9.7 0.00 0.00 0.00 100 1004.8
20260506084635 12 337 6.4 11.3 0.00 0.00 0.00 100 1004.7
20260506083628 12 337 1.6 6.4 0.00 0.00 0.00 100 1004.8
20260506083115 11 337 4.8 8.0 0.00 0.00 0.00 100 1004.8
20260506082622 11 337 1.6 9.7 0.00 0.00 0.00 100 1004.8
20260506080615 10 337 8.0 8.0 0.00 0.00 0.00 100 1004.0
20260506073037 7 337 1.6 3.2 0.00 0.00 0.00 100 1002.9
20260506072548 7 337 0.0 3.2 0.00 0.00 0.00 100 1002.9
20260506072031 6 337 0.0 1.6 0.00 0.00 0.00 100 1002.9
20260506071541 6 337 0.0 0.0 0.00 0.00 0.00 100 1002.9
20260506071018 6 337 0.0 1.6 0.00 0.00 0.00 100 1003.2
20260506070526 5 337 0.0 1.6 0.00 0.00 0.00 100 1003.3
20260506062009 3 337 3.2 3.2 0.00 0.00 0.00 100 1003.6
20260506061021 3 337 0.0 4.8 0.00 0.00 0.00 100 1003.6
20260506060451 3 337 0.0 4.8 0.00 0.00 0.00 100 1003.5
20260506050937 3 337 1.6 4.8 0.00 0.00 0.00 100 1003.8
20260506050425 3 337 3.2 3.2 0.00 0.00 0.00 100 1003.7
20260506044912 3 337 1.6 4.8 0.00 0.00 0.00 100 1003.8
20260506044402 3 337 3.2 4.8 0.00 0.00 0.00 100 1003.8
20260506043918 3 337 3.2 3.2 0.00 0.00 0.00 100 1003.7
20260506043400 3 337 0.0 3.2 0.00 0.00 0.00 100 1003.8